STARLINK-33632, 63577

Orbit data source: Space-Track

STARLINK-33632, 63577 is a payload satellite owned by SpaceX/Seattle (US) in LEO that was launched on Mon, 14 Apr 2025 UTC via an FALCON 9 launch vehicle from the Air Force Eastern Test Range (AFETR). Payload-class satellites include a variety of spacecraft equipped with specific instruments for various scientific and technological missions. These include communications satellites like Starlink; space stations such as the ISS; scientific satellites like the Hubble; Earth observation satellites from companies like Planet Labs, Umbra, and HawkEye 360; GPS; miniature CubeSats for education and research; and military/defense satellites.

Loading next visibility...
Identifier
63577, 2025-076J
Orbit
LEO
Last TLE update
9 hours ago
Origin
Manufacturer
SpaceX/Seattle
Mission
Operational Commercial Communications
Bus & Motor
STARLINK V2MO, Unknown motor
Mass
575 kg wet, ~530 kg dry
Launch date (UTC)
2025-04-14 (3 months ago)
Launch vehicle
FALCON 9
Launch site
Air Force Eastern Test Range (AFETR)
Object type
Payload
Rocket body
Debris
Shape & HBR
Box + 1 Pan, 29 m
Radar Cross Section
41.120 m², Large (>1 m²)

Expand to show TLE details & history

TLE from 9 hours ago
0 STARLINK-33632
1 63577U 25076J   25182.05997194  .00019573  00000-0  71891-3 0  9994
2 63577  43.0001 303.0494 0000525 245.0370 115.0427 15.27579450 13294
Epoch: 2025-07-01T01:26Z
TLE epoch observation values (Epoch: 2025-07-01T01:26:21.575Z)
Latitude
-0.00003°
Longitude
2.09862°
Altitude
482.979 km
Speed
7.626 km/s
True Right ascension
20h 12m 11s
True Declination
0° 00' 00"
Sunlit
Object was in full shadow at epoch
Visualization orbit readout
Latitude
-35.46391°
Longitude
-130.55685°
Altitude
492.839 km
Speed
7.619 km/s
Apparent Right ascension
10h 42m 30s
Apparent Declination
-37° 53' 31"
Sunlit
Object is in daylight
Visualization observer readout
Local Sidereal Time
21:57:46
Azimuth
279.53° WNW
Elevation
-81.07°
Doppler factor
1
Orbital elements
Apogee altitude
485.356 km
Perigee altitude
484.636 km
Semi-major axis
6,863.133 km
Eccentricity
0.00005
Inclination
43.0001°
RAAN
303.0494°
Arg. of periapsis
245.037°
True anomaly
Unknown
Mean anomaly
115.0427°
Eccentric anomaly
Unknown
Mean motion
3.81733 °/min
Orbital period
94.31 mins
BSTAR
0.00071891
Loading maneuver chart data...
Loading SW <> Apogee altitude chart data...
Loading historical data...
Loading historical data...
Loading historical data...
Loading historical data...
Loading historical data...
Loading historical data...
Loading historical data...

STARLINK-33632 Visibility forecast

Observer location: undefined°, undefined°

Span
Click to sort rows by Start time (UTC) header in descending order
Start Az.
Max El. time (UTC)
Max El. Az.
Max El.
End time (UTC)
End Az.
6 mins2025-07-01 11:02:20.245Z202.844° SW2025-07-01 11:05:20.245Z148.265° SSE23.101°2025-07-01 11:08:20.245Z91.587° ESE
5 mins2025-07-01 12:42:20.245Z256.022° W2025-07-01 12:44:20.245Z48.532° ENE44.115°2025-07-01 12:47:20.245Z71.177° E
5 mins2025-07-01 14:21:20.245Z294.48° NW2025-07-01 14:23:20.245Z6.868° NNE37.918°2025-07-01 14:26:20.245Z75.521° E
5 mins2025-07-01 16:00:20.245Z289.027° WNW2025-07-01 16:02:20.245Z331° NNW44.954°2025-07-01 16:05:20.245Z107.855° ESE
4 mins2025-07-01 17:39:20.245Z252.01° W2025-07-01 17:41:20.245Z206.308° SW21.589°2025-07-01 17:43:20.245Z167.502° S
|